This is the latest recevied weather packets stored in our database for station/object WD4HMR. If no packets are shown the sender has not sent any weather packets the latest 10 day(s).
| Time | Temp. | Humidity | Pressure | Rain* | Wind** | Luminosity | Snow |
|---|---|---|---|---|---|---|---|
| 1777650978 | 14.44° C | 78% | 1016.4 hPa | 0 mm | - | - | - |
| 1777650932 | 14.44° C | 78% | 1016.4 hPa | 0 mm | - | - | - |
| 1777650558 | 14.44° C | 79% | 1016.3 hPa | 0 mm | - | - | - |
| 1777650451 | 14.44° C | 80% | 1016.3 hPa | 0 mm | - | - | - |
| 1777650139 | 14.44° C | 79% | 1016.5 hPa | 0 mm | - | - | - |
| 1777649639 | 14.44° C | 74% | 1016.5 hPa | 0 mm | - | - | - |
| 1777649492 | 14.44° C | 74% | 1016.5 hPa | 0 mm | - | - | - |
| 1777649109 | 14.44° C | 74% | 1016.5 hPa | 0 mm | - | - | - |
| 1777649012 | 14.44° C | 74% | 1016.5 hPa | 0 mm | - | - | - |
| 1777648689 | 14.44° C | 74% | 1016.5 hPa | 0 mm | - | - | - |
| 1777648532 | 14.44° C | 74% | 1016.4 hPa | 0 mm | - | - | - |
| 1777648269 | 14.44° C | 72% | 1016.4 hPa | 0 mm | - | - | - |
| 1777648052 | 14.44° C | 72% | 1016.3 hPa | 0 mm | - | - | - |
| 1777647849 | 14.44° C | 74% | 1016.2 hPa | 0 mm | - | - | - |
| 1777647430 | 14.44° C | 74% | 1016.3 hPa | 0 mm | - | - | - |
| 1777647092 | 14.44° C | 74% | 1016.2 hPa | 0 mm | - | - | - |
| 1777647010 | 14.44° C | 73% | 1016.2 hPa | 0 mm | - | - | - |
| 1777646612 | 14.44° C | 73% | 1016 hPa | 0 mm | - | - | - |
| 1777646589 | 14.44° C | 73% | 1016 hPa | 0 mm | - | - | - |
| 1777646169 | 14.44° C | 71% | 1016 hPa | 0 mm | - | - | - |
| 1777646134 | 14.44° C | 72% | 1016 hPa | 0 mm | - | - | - |
| 1777645749 | 13.89° C | 74% | 1016 hPa | 0 mm | - | - | - |
| 1777645652 | 13.89° C | 74% | 1016 hPa | 0 mm | - | - | - |
| 1777645335 | 13.89° C | 74% | 1016 hPa | 0 mm | - | - | - |
| 1777645172 | 13.89° C | 74% | 1015.9 hPa | 0 mm | - | - | - |
* Rain latest hour (hover to see other rain measurements)
** Current wind speed in m/s (hover to see current wind gust speed)